Home > Weather > Brumunddal > Past weeks

Flag for Norway Weather for the Past 2 Weeks in Brumunddal, Norway

Now
38 °F

Chilly.


Feels Like: 38 °F
Forecast: 29 / 57 °F
Wind: 1 mph from North

Location: Lillehammer-Saetherengen

Current Time: May 4, 2016 at 12:38:32 AM

Latest Report: May 3, 2016 at 11:00 PM


Visibility: N/A

Pressure: 30.04 "Hg

Humidity: 85%

Dew Point: 34 °F

Location of BrumunddalLocation

Historic Weather in Brumunddal — Graph

°F

Brumunddal Temperature Yesterday

Maximum temperature yesterday: 48 °F (at 6:00 PM)
Minimum temperature yesterday: 38 °F (at 11:00 PM)
Average temperature yesterday: 43 °F

High & Low Weather Summary for the Past Weeks

 TemperatureHumidityPressure
High52 °F (Apr 19, 5:00 PM)98% (Apr 30, 9:00 PM)30.25 "Hg (Apr 30, 9:00 PM)
Low27 °F (Apr 23, 6:00 AM)23% (Apr 27, 5:00 PM)29.35 "Hg (Apr 18, 11:00 PM)
Average41 °F59%29.89 "Hg
* Reported Apr 18 11:00 PM — May 3 11:00 PM, Brumunddal, Weather by CustomWeather, © 2016

Note: Actual official high and low records may vary slightly from our data, if they occured in-between our weather recording intervals... More about our weather records

Advertising

Brumunddal Weather History for the Previous 24 Hours

Scroll right to see more
 ConditionsComfort  
Time TempWeatherWind HumidityBarometerVisibility
11:00 PM
Tue, May 3
38 °FChilly.1 mph85%30.04 "HgN/A
10:00 PM42 °FQuite cool.2 mph80%30.01 "HgN/A
9:00 PM46 °FCool.2 mph82%29.97 "HgN/A
8:00 PM47 °FCool.3 mph83%29.94 "HgN/A
7:00 PM47 °FCool.3 mph81%29.93 "HgN/A
6:00 PM48 °FCool.3 mph84%29.91 "HgN/A
5:00 PM47 °FCool.5 mph87%29.91 "HgN/A
4:00 PM47 °FCool.5 mph88%29.90 "HgN/A
3:00 PM47 °FCool.3 mph89%29.90 "HgN/A
2:00 PM46 °FCool.5 mph90%29.90 "HgN/A
1:00 PM46 °FCool.3 mph93%29.89 "HgN/A
12:00 PM42 °FQuite cool.1 mph95%29.90 "HgN/A
11:00 AM41 °FQuite cool.1 mph94%29.92 "HgN/A
9:00 AM40 °FChilly.1 mph90%29.92 "HgN/A
8:00 AM40 °FQuite cool.2 mph86%29.92 "HgN/A
6:00 AM39 °FChilly.1 mph89%29.94 "HgN/A
2:00 AM39 °FChilly.1 mph88%29.99 "HgN/A
1:00 AM39 °FChilly.1 mph85%30.00 "HgN/A
12:00 AM41 °FQuite cool.3 mph81%30.00 "HgN/A
Weather by CustomWeather, © 2016

See weather overviewHow to use our weather pages